TimePDT,TemperatureF,Dew PointF,Humidity,Sea Level PressureIn,VisibilityMPH,Wind Direction,Wind SpeedMPH,Gust SpeedMPH,PrecipitationIn,Events,Conditions,WindDirDegrees,DateUTC
12:15 AM,37.4,12.2,36,30.34,10.0,East,8.1,-,N/A,,Clear,90,2013-10-05 07:15:00
12:35 AM,39.2,14.0,36,30.34,10.0,East,8.1,-,N/A,,Clear,80,2013-10-05 07:35:00
12:55 AM,37.4,14.0,38,30.34,10.0,ENE,6.9,-,N/A,,Clear,70,2013-10-05 07:55:00
1:15 AM,37.4,14.0,38,30.35,10.0,East,5.8,-,N/A,,Clear,80,2013-10-05 08:15:00
1:35 AM,37.4,14.0,38,30.35,10.0,ENE,3.5,-,N/A,,Clear,70,2013-10-05 08:35:00
1:55 AM,35.6,14.0,41,30.36,10.0,NE,3.5,-,N/A,,Clear,50,2013-10-05 08:55:00
2:15 AM,35.6,14.0,41,30.36,10.0,Calm,Calm,-,N/A,,Clear,0,2013-10-05 09:15:00
2:35 AM,35.6,14.0,41,30.36,10.0,Calm,Calm,-,N/A,,Clear,0,2013-10-05 09:35:00
2:55 AM,32.0,14.0,48,30.36,10.0,Calm,Calm,-,N/A,,Clear,0,2013-10-05 09:55:00
3:15 AM,32.0,14.0,48,30.36,10.0,Calm,Calm,-,N/A,,Clear,0,2013-10-05 10:15:00
3:35 AM,32.0,14.0,48,30.36,10.0,Calm,Calm,-,N/A,,Clear,0,2013-10-05 10:35:00
3:55 AM,32.0,14.0,48,30.35,10.0,Calm,Calm,-,N/A,,Clear,0,2013-10-05 10:55:00
4:15 AM,32.0,12.2,44,30.36,10.0,Calm,Calm,-,N/A,,Clear,0,2013-10-05 11:15:00
4:35 AM,32.0,14.0,48,30.36,10.0,Calm,Calm,-,N/A,,Clear,0,2013-10-05 11:35:00
4:55 AM,32.0,12.2,44,30.36,10.0,Calm,Calm,-,N/A,,Clear,0,2013-10-05 11:55:00
5:15 AM,35.6,12.2,38,30.35,10.0,East,6.9,-,N/A,,Clear,100,2013-10-05 12:15:00
5:35 AM,35.6,12.2,38,30.36,10.0,ESE,6.9,-,N/A,,Clear,110,2013-10-05 12:35:00
5:55 AM,37.4,12.2,36,30.36,10.0,East,8.1,-,N/A,,Clear,90,2013-10-05 12:55:00
6:15 AM,37.4,12.2,36,30.36,10.0,East,8.1,-,N/A,,Clear,100,2013-10-05 13:15:00
6:35 AM,37.4,14.0,38,30.37,10.0,East,10.4,-,N/A,,Clear,90,2013-10-05 13:35:00
6:55 AM,37.4,14.0,38,30.37,10.0,East,9.2,16.1,N/A,,Clear,80,2013-10-05 13:55:00
7:15 AM,37.4,14.0,38,30.38,10.0,East,11.5,-,N/A,,Clear,90,2013-10-05 14:15:00
7:35 AM,39.2,14.0,36,30.38,10.0,East,10.4,16.1,N/A,,Clear,80,2013-10-05 14:35:00
7:55 AM,41.0,14.0,33,30.39,10.0,East,9.2,-,N/A,,Clear,80,2013-10-05 14:55:00
8:15 AM,42.8,12.2,29,30.39,10.0,East,15.0,21.9,N/A,,Clear,80,2013-10-05 15:15:00
8:35 AM,42.8,12.2,29,30.40,10.0,East,15.0,-,N/A,,Clear,90,2013-10-05 15:35:00
8:55 AM,42.8,8.6,25,30.40,10.0,ENE,18.4,21.9,N/A,,Clear,60,2013-10-05 15:55:00
9:15 AM,44.6,8.6,23,30.41,10.0,ENE,13.8,-,N/A,,Clear,60,2013-10-05 16:15:00
9:35 AM,46.4,6.8,20,30.41,10.0,ENE,17.3,-,N/A,,Clear,60,2013-10-05 16:35:00
9:55 AM,46.4,8.6,22,30.41,10.0,ENE,13.8,-,N/A,,Clear,70,2013-10-05 16:55:00
10:15 AM,46.4,5.0,18,30.42,10.0,ENE,13.8,19.6,N/A,,Clear,60,2013-10-05 17:15:00
10:35 AM,50.0,3.2,15,30.42,10.0,NE,12.7,-,N/A,,Clear,50,2013-10-05 17:35:00
10:55 AM,50.0,3.2,15,30.43,10.0,ENE,11.5,-,N/A,,Clear,70,2013-10-05 17:55:00
11:15 AM,51.8,3.2,14,30.42,10.0,ENE,15.0,20.7,N/A,,Clear,60,2013-10-05 18:15:00
11:35 AM,51.8,3.2,14,30.43,10.0,ENE,13.8,-,N/A,,Clear,60,2013-10-05 18:35:00
11:55 AM,51.8,3.2,14,30.42,10.0,ENE,10.4,17.3,N/A,,Clear,60,2013-10-05 18:55:00
12:15 PM,51.8,3.2,14,30.42,10.0,NE,12.7,18.4,N/A,,Clear,50,2013-10-05 19:15:00
12:35 PM,53.6,5.0,14,30.41,10.0,NE,11.5,18.4,N/A,,Clear,50,2013-10-05 19:35:00
12:55 PM,53.6,5.0,14,30.41,10.0,NE,11.5,-,N/A,,Clear,50,2013-10-05 19:55:00
1:15 PM,55.4,3.2,12,30.40,10.0,ENE,13.8,20.7,N/A,,Clear,60,2013-10-05 20:15:00
1:35 PM,55.4,5.0,13,30.39,10.0,NE,13.8,19.6,N/A,,Clear,40,2013-10-05 20:35:00
1:55 PM,53.6,5.0,14,30.39,10.0,ENE,12.7,18.4,N/A,,Clear,60,2013-10-05 20:55:00
2:15 PM,55.4,3.2,12,30.39,10.0,ENE,11.5,19.6,N/A,,Clear,60,2013-10-05 21:15:00
2:35 PM,55.4,5.0,13,30.39,10.0,ENE,11.5,18.4,N/A,,Clear,60,2013-10-05 21:35:00
2:55 PM,55.4,5.0,13,30.38,10.0,ENE,12.7,-,N/A,,Clear,60,2013-10-05 21:55:00
3:15 PM,55.4,5.0,13,30.38,10.0,ENE,12.7,-,N/A,,Clear,70,2013-10-05 22:15:00
3:35 PM,55.4,6.8,14,30.39,10.0,East,11.5,-,N/A,,Clear,80,2013-10-05 22:35:00
3:55 PM,55.4,8.6,15,30.39,10.0,ENE,8.1,-,N/A,,Clear,60,2013-10-05 22:55:00
4:15 PM,53.6,5.0,14,30.39,10.0,ENE,8.1,-,N/A,,Clear,60,2013-10-05 23:15:00
4:35 PM,53.6,6.8,15,30.39,10.0,NE,9.2,-,N/A,,Clear,50,2013-10-05 23:35:00
4:55 PM,53.6,8.6,16,30.39,10.0,ENE,6.9,-,N/A,,Clear,60,2013-10-05 23:55:00
5:15 PM,51.8,6.8,16,30.39,10.0,ENE,9.2,-,N/A,,Clear,60,2013-10-06 00:15:00
5:35 PM,53.6,6.8,15,30.39,10.0,ENE,9.2,-,N/A,,Clear,70,2013-10-06 00:35:00
5:55 PM,51.8,8.6,18,30.39,10.0,ENE,9.2,-,N/A,,Clear,70,2013-10-06 00:55:00
6:15 PM,50.0,8.6,19,30.39,10.0,ENE,8.1,-,N/A,,Clear,60,2013-10-06 01:15:00
6:35 PM,48.2,8.6,20,30.39,10.0,East,6.9,-,N/A,,Clear,90,2013-10-06 01:35:00
6:55 PM,46.4,8.6,22,30.40,10.0,ENE,9.2,-,N/A,,Clear,70,2013-10-06 01:55:00
7:15 PM,44.6,8.6,23,30.40,10.0,ENE,4.6,-,N/A,,Clear,60,2013-10-06 02:15:00
7:35 PM,44.6,8.6,23,30.40,10.0,ENE,4.6,-,N/A,,Clear,60,2013-10-06 02:35:00
7:55 PM,42.8,8.6,25,30.41,10.0,North,3.5,-,N/A,,Clear,360,2013-10-06 02:55:00
8:15 PM,41.0,8.6,26,30.41,10.0,Calm,Calm,-,N/A,,Clear,0,2013-10-06 03:15:00
8:35 PM,39.2,8.6,28,30.41,10.0,Calm,Calm,-,N/A,,Clear,0,2013-10-06 03:35:00
8:55 PM,35.6,8.6,33,30.42,10.0,Calm,Calm,-,N/A,,Clear,0,2013-10-06 03:55:00
9:15 PM,35.6,8.6,33,30.42,10.0,Calm,Calm,-,N/A,,Clear,0,2013-10-06 04:15:00
9:35 PM,33.8,8.6,35,30.42,10.0,Calm,Calm,-,N/A,,Clear,0,2013-10-06 04:35:00
9:55 PM,33.8,8.6,35,30.42,10.0,Calm,Calm,-,N/A,,Clear,0,2013-10-06 04:55:00
10:15 PM,33.8,6.8,32,30.42,10.0,ENE,3.5,-,N/A,,Clear,70,2013-10-06 05:15:00
10:35 PM,37.4,5.0,26,30.42,10.0,ENE,8.1,-,N/A,,Clear,70,2013-10-06 05:35:00
10:55 PM,39.2,5.0,24,30.42,10.0,ENE,5.8,-,N/A,,Clear,70,2013-10-06 05:55:00
11:15 PM,41.0,3.2,21,30.41,10.0,ENE,8.1,-,N/A,,Clear,70,2013-10-06 06:15:00
11:35 PM,37.4,5.0,26,30.41,10.0,ENE,5.8,-,N/A,,Clear,70,2013-10-06 06:35:00
11:55 PM,37.4,5.0,26,30.41,10.0,East,5.8,-,N/A,,Clear,90,2013-10-06 06:55:00